Home   Weather   Porsgrunn   Past weeks

Flag for Norway Past Weather in Porsgrunn, Norway — Yesterday and Last 2 Weeks

Now
56 °F

Cool.


Feels Like: 55 °F
Forecast: 41 / 56 °F
Wind: 5 mph from West

Location: Jomfruland Fyr

Current Time: Oct 1, 2016 at 9:07:26 PM

Latest Report: Oct 1, 2016 at 8:00 PM


Visibility: N/A

Pressure: 29.78 "Hg

Humidity: 74%

Dew Point: 48 °F

Location of PorsgrunnLocation

Past Weather in Porsgrunn — Graph

°F

Porsgrunn Temperature Yesterday

Maximum temperature yesterday: 58 °F (at 5:00 PM)
Minimum temperature yesterday: 49 °F (at 8:00 AM)
Average temperature yesterday: 54 °F

High & Low Weather Summary for the Past Weeks

 TemperatureHumidityPressure
High66 °F (Sep 20, 2:00 PM)95% (Sep 20, 4:00 AM)30.26 "Hg (Sep 20, 4:00 AM)
Low47 °F (Oct 1, 7:00 AM)46% (Sep 23, 7:00 PM)29.15 "Hg (Sep 29, 6:00 PM)
Average58 °F77%29.98 "Hg
* Reported Sep 16 7:00 PM — Oct 1 7:00 PM, Porsgrunn, Weather by CustomWeather, © 2016

Note: Actual official high and low records may vary slightly from our data, if they occured in-between our weather recording intervals... More about our weather records

Advertising

Porsgrunn Weather History for the Previous 24 Hours

Scroll right to see more
 ConditionsComfort  
Time TempWeatherWind HumidityBarometerVisibility
7:00 PM
Sat, Oct 1
57 °FCool.8 mph70%29.78 "HgN/A
6:00 PM58 °FCool.8 mph73%29.77 "HgN/A
5:00 PM58 °FCool.7 mph68%29.76 "HgN/A
4:00 PM60 °FRefreshingly cool.3 mph51%29.76 "HgN/A
3:00 PM60 °FRefreshingly cool.5 mph49%29.76 "HgN/A
2:00 PM59 °FRefreshingly cool.3 mph52%29.77 "HgN/A
1:00 PM58 °FRefreshingly cool.2 mph53%29.77 "HgN/A
12:00 PM56 °FRefreshingly cool.3 mph59%29.76 "HgN/A
11:00 AM54 °FCool.5 mph66%29.75 "HgN/A
10:00 AM52 °FCool.6 mph73%29.74 "HgN/A
9:00 AM49 °FCool.5 mph75%29.72 "HgN/A
8:00 AM48 °FCool.5 mph78%29.71 "HgN/A
7:00 AM47 °FCool.5 mph79%29.68 "HgN/A
6:00 AM49 °FCool.7 mph80%29.67 "HgN/A
5:00 AM48 °FCool.5 mph77%29.65 "HgN/A
4:00 AM49 °FCool.6 mph76%29.64 "HgN/A
2:00 AM49 °FCool.8 mph76%29.62 "HgN/A
1:00 AM51 °FCool.10 mph75%29.61 "HgN/A
12:00 AM51 °FCool.9 mph74%29.59 "HgN/A
11:00 PM
Fri, Sep 30
51 °FCool.12 mph73%29.57 "HgN/A
10:00 PM52 °FCool.12 mph72%29.55 "HgN/A
Weather by CustomWeather, © 2016

See weather overviewHow to use our weather pages